Location: El Centro
(32.7920°N, 115.5620°W)
Time: 00:24:56
(UTC-07:00)

Amateur Radio Satellites - All Passes

Search period start: 30 July 2016 23:54
Search period end: 31 July 2016 23:54
Location: El Centro, 32.7920°N, 115.5620°W

Satellite Date Start Highest point End Downlink Frequencies (MHz)
Time Altitude Azimuth
TIGRISAT 30 Jul 23:57:00 00:00:35 23° 290° (WNW) 00:04:04 435.000
JUGNU 31 Jul 00:05:06 00:09:17 20° 171° (S) 00:13:29 437.505
UNISAT 6 31 Jul 00:15:55 00:18:13 14° 293° (WNW) 00:20:30 437.425
CUBEBUG 1 31 Jul 00:20:26 00:24:17 32° 262° (W) 00:28:11 437.445
BUGSAT 1 31 Jul 00:28:26 00:32:30 43° 99° (E) 00:36:32 437.445
NANOSAT C BR1 31 Jul 00:29:23 00:33:37 65° 285° (WNW) 00:37:49 145.865
VELOX 1 31 Jul 00:30:34 00:34:23 29° 263° (W) 00:38:13 145.980
DUCHIFAT 1 31 Jul 00:31:32 00:35:46 66° 284° (WNW) 00:39:57 145.980
ESTCUBE 1 31 Jul 00:33:22 00:36:09 16° 266° (W) 00:38:56 437.505/2401.250
TISAT 1 31 Jul 00:34:59 00:38:28 26° 71° (ENE) 00:42:00 437.305
SRMSAT 31 Jul 00:44:08 00:45:47 11° 163° (SSE) 00:47:27 437.500
QB50P1 31 Jul 00:54:47 00:58:31 30° 288° (WNW) 01:02:14 145.935-145.965
DX 1 31 Jul 01:01:19 01:04:16 18° 265° (W) 01:07:15 434.975-435.025
POPSAT HIP 1 31 Jul 01:01:50 01:05:22 25° 289° (WNW) 01:08:53 437.405
SWISSCUBE 31 Jul 01:03:19 01:05:02 12° 65° (ENE) 01:06:45 437.505
Cosmos 2499 31 Jul 01:05:05 01:07:53 12° 66° (ENE) 01:10:37 435.465 / 435.565
UKube-1 31 Jul 01:06:33 01:09:41 20° 264° (W) 01:12:51 .
JAS-2 31 Jul 01:12:09 01:17:40 89° 103° (ESE) 01:23:51 435.910
AIST 1 31 Jul 01:18:25 01:21:08 16° 273° (W) 01:23:53
GONETS M04 31 Jul 01:21:16 01:28:53 31° 74° (ENE) 01:36:27
BEESAT 31 Jul 01:22:35 01:25:44 18° 68° (ENE) 01:28:53 436.000
QB50P2 31 Jul 01:25:11 01:27:14 13° 293° (WNW) 01:29:17 145.880/145.840
POLYITAN 1 31 Jul 01:27:53 01:29:52 13° 293° (WNW) 01:31:51 437.675
SPROUT 31 Jul 01:32:57 01:34:44 12° 267° (W) 01:36:31 437.525
Oscar 19 31 Jul 01:44:49 01:49:48 46° 100° (E) 01:54:47 437.125/150
ITUPSAT 1 31 Jul 01:47:22 01:51:36 32° 71° (ENE) 01:55:50 437.325
JUGNU 31 Jul 01:53:05 01:57:43 23° 181° (S) 02:02:20 437.505
Gurwin Techsat 1B 31 Jul 02:00:41 02:05:13 28° 97° (E) 02:09:43 435.225
BUGSAT 1 31 Jul 02:05:33 02:07:26 13° 293° (WNW) 02:09:20 437.445
TISAT 1 31 Jul 02:11:00 02:14:03 19° 264° (W) 02:17:07 437.305
ISS 31 Jul 02:11:06 02:13:38 21° 36° (NE) 02:16:11 145.825
SRMSAT 31 Jul 02:30:04 02:34:17 20° 172° (S) 02:38:30 437.500
BEESAT 3 31 Jul 02:37:05 02:40:59 56° 60° (ENE) 02:44:51 437.485
SWISSCUBE 31 Jul 02:37:32 02:42:15 60° 259° (WSW) 02:47:00 437.505
DANDE 31 Jul 02:41:01 02:43:15 13° 94° (E) 02:45:15 436.750
BEESAT 2 31 Jul 02:52:05 02:55:54 41° 59° (ENE) 02:59:41 435.950
PCSat 31 Jul 02:52:28 02:56:11 18° 53° (NE) 02:59:52 145.827
Cosmos 2499 31 Jul 02:54:29 03:02:06 88° 265° (W) 03:09:14 435.465 / 435.565
BEESAT 31 Jul 02:58:43 03:03:11 39° 261° (W) 03:07:39 436.000
MOZHAYETS 4 31 Jul 03:01:25 03:05:02 23° 70° (ENE) 03:08:38
GONETS M04 31 Jul 03:17:30 03:25:48 48° 271° (W) 03:34:08
CUSAT 1 31 Jul 03:17:34 03:21:41 75° 277° (W) 03:24:53 437.405
Oscar 19 31 Jul 03:25:23 03:28:42 18° 294° (WNW) 03:32:02 437.125/150
ITUPSAT 1 31 Jul 03:25:49 03:29:25 21° 264° (W) 03:33:01 437.325
ITAMSAT 1 31 Jul 03:28:38 03:33:48 66° 102° (ESE) 03:38:55 435.822/435.867
KKS-1 31 Jul 03:31:00 03:35:13 45° 73° (ENE) 03:39:29 437.445
AO-7 31 Jul 03:38:28 03:46:00 36° 100° (E) 03:53:25 29.400- 29.500
Gurwin Techsat 1B 31 Jul 03:40:31 03:45:03 29° 290° (WNW) 03:49:33 435.225
JUGNU 31 Jul 03:42:12 03:46:08 18° 191° (S) 03:50:02 437.505
ISS 31 Jul 03:47:13 03:50:04 28° 230° (SW) 03:52:54 145.825
STARS 31 Jul 03:57:36 04:01:45 43° 73° (ENE) 04:05:56 437.465
RS-15 31 Jul 04:16:51 04:24:35 21° 100° (E) 04:32:30 29.354- 29.394
SRMSAT 31 Jul 04:18:18 04:22:51 23° 182° (S) 04:27:24 437.500
DANDE 31 Jul 04:20:41 04:25:58 45° 278° (W) 04:29:59 436.750
BEESAT 2 31 Jul 04:31:47 04:33:18 12° 252° (WSW) 04:34:49 435.950
CUBESAT XI-V 31 Jul 04:32:38 04:36:23 25° 71° (ENE) 04:40:08 437.345
PCSat 31 Jul 04:34:36 04:39:52 53° 249° (WSW) 04:45:06 145.827
MOZHAYETS 4 31 Jul 04:38:04 04:42:01 27° 263° (W) 04:45:57
O/OREOS (USA 219) 31 Jul 04:49:34 04:51:50 13° 60° (ENE) 04:54:05 437.305
HORYU 2 31 Jul 04:50:57 04:54:19 21° 96° (E) 04:57:38 437.375
Cosmos 2499 31 Jul 04:52:49 04:53:49 10° 282° (WNW) 04:54:48 435.465 / 435.565
KKS-1 31 Jul 05:10:07 05:11:58 12° 267° (W) 05:13:49 437.445
ITAMSAT 1 31 Jul 05:10:32 05:12:38 13° 296° (WNW) 05:14:45 435.822/435.867
AIST 2 31 Jul 05:30:01 05:34:12 78° 243° (WSW) 05:38:20 435.215
BRITE-PL 31 Jul 05:30:06 05:33:40 19° 95° (E) 05:37:21 437.365/2234.400
AO-7 31 Jul 05:31:00 05:38:41 43° 295° (WNW) 05:46:21 29.400- 29.500
STARS 31 Jul 05:36:17 05:38:16 13° 266° (W) 05:40:15 437.465
CUTE-I 31 Jul 05:42:28 05:44:11 11° 92° (E) 05:45:54 437.470
NOAA 15 31 Jul 05:46:06 05:49:42 18° 95° (E) 05:53:16 137.62
SRMSAT 31 Jul 06:07:39 06:11:24 17° 192° (SSW) 06:15:09 437.500
GOMX 1 31 Jul 06:09:04 06:13:05 22° 95° (E) 06:17:11 467.674
CUBESAT XI-V 31 Jul 06:09:54 06:13:39 24° 264° (W) 06:17:23 437.345
STRAND 1 31 Jul 06:13:26 06:16:59 19° 67° (ENE) 06:20:33 437.568
RS-15 31 Jul 06:24:03 06:35:26 82° 298° (WNW) 06:47:31 29.354- 29.394
HORYU 2 31 Jul 06:27:01 06:30:48 28° 289° (WNW) 06:34:33 437.375
O/OREOS (USA 219) 31 Jul 06:27:05 06:31:28 48° 254° (WSW) 06:35:51 437.305
SO-50 31 Jul 06:44:26 06:49:18 78° 117° (ESE) 06:54:11 436.795
Cosmos 2491 31 Jul 06:52:32 06:57:17 15° 67° (ENE) 07:02:01 435.465 / 435.565
NOAA 18 31 Jul 06:53:48 06:59:19 65° 102° (ESE) 07:04:45 137.9125
Cubesat XI-IV 31 Jul 06:57:05 07:02:26 74° 102° (ESE) 07:07:44 437.490
BRITE-PL 31 Jul 07:07:21 07:12:09 43° 286° (WNW) 07:17:16 437.365/2234.400
DOVE 4 31 Jul 07:16:06 07:21:11 48° 99° (E) 07:26:17 437.250
LilacSat-2 31 Jul 07:17:41 07:21:23 46° 285° (WNW) 07:25:02 437.200
CUTE-I 31 Jul 07:19:19 07:24:36 67° 285° (WNW) 07:29:51 437.470
NOAA 15 31 Jul 07:24:37 07:29:35 43° 288° (WNW) 07:34:33 137.62
GOMX 1 31 Jul 07:46:18 07:51:09 39° 287° (WNW) 07:56:10 467.674
STRAND 1 31 Jul 07:50:58 07:55:47 41° 261° (W) 08:00:40 437.568
HO-68 31 Jul 07:59:22 08:05:50 35° 98° (E) 08:12:14 435.675
YUBILEINY 31 Jul 08:12:30 08:19:29 27° 84° (E) 08:26:28 435.215
SO-50 31 Jul 08:28:21 08:30:19 12° 313° (NW) 08:32:18 436.795
CANX-2 31 Jul 08:30:45 08:34:56 74° 100° (E) 08:39:08 2200.000
CINEMA 3 31 Jul 08:31:29 08:36:31 84° 102° (ESE) 08:41:24 145.822/145.860
PRISM 31 Jul 08:36:25 08:40:28 77° 77° (ENE) 08:44:31 437.425
NOAA 18 31 Jul 08:36:32 08:39:20 14° 297° (WNW) 08:42:07 137.9125
UWE-3 31 Jul 08:37:03 08:39:41 15° 93° (E) 08:42:17 435.000/436.395/437.385
Cubesat XI-IV 31 Jul 08:40:00 08:41:48 12° 297° (WNW) 08:43:36 437.490
RS-15 31 Jul 08:41:15 08:50:01 24° 323° (NW) 08:59:10 29.354- 29.394
CUTE 1.7 + AOD 2 31 Jul 08:43:14 08:47:27 89° 283° (WNW) 08:51:38 437.475
Cosmos 2491 31 Jul 08:46:21 08:55:09 88° 269° (W) 09:03:58 435.465 / 435.565
DOVE 4 31 Jul 08:54:57 08:58:26 18° 292° (WNW) 09:01:57 437.250
Cosmos 2504 31 Jul 08:57:19 09:02:18 17° 80° (E) 09:07:15 435.465 / 435.565
Oscar 11 31 Jul 08:59:10 09:02:01 17° 95° (E) 09:04:51 145.826/435.025
CUBEBUG 2 31 Jul 09:07:32 09:12:06 56° 100° (E) 09:16:30 437.445
SEEDS 31 Jul 09:13:54 09:17:57 53° 285° (WNW) 09:21:59 437.485
TIGRISAT 31 Jul 09:15:28 09:18:05 15° 67° (ENE) 09:20:43 435.000
COMPASS 1 31 Jul 09:16:48 09:20:54 74° 284° (WNW) 09:25:01 437.405
DELFI C3 31 Jul 09:25:35 09:27:23 13° 94° (E) 09:29:09 145.870
UNISAT 6 31 Jul 09:32:09 09:35:54 25° 70° (ENE) 09:39:41 437.425
AAUSAT CUBESAT 2 31 Jul 09:40:33 09:44:29 47° 285° (WNW) 09:48:25 437.432
HO-68 31 Jul 09:46:59 09:53:26 37° 293° (WNW) 09:59:52 435.675
FUNcube-1 31 Jul 09:58:01 10:02:26 85° 101° (ESE) 10:06:43 145.935
ZACube-1 31 Jul 10:01:37 10:06:04 80° 283° (WNW) 10:10:21 437.345
YUBILEINY 31 Jul 10:07:10 10:15:40 54° 280° (W) 10:24:17 435.215
ANTELSAT 31 Jul 10:09:26 10:14:01 65° 75° (ENE) 10:18:42 437.575/2403.000
UWE-3 31 Jul 10:12:05 10:16:16 37° 287° (WNW) 10:20:19 435.000/436.395/437.385
Oscar 11 31 Jul 10:34:21 10:38:09 31° 288° (WNW) 10:41:54 145.826/435.025
HUMSAT D 31 Jul 10:34:54 10:38:52 44° 99° (E) 10:42:47 437.325/437.525
M-CUBED/EXP-1 PRIME 31 Jul 10:36:25 10:41:02 53° 104° (ESE) 10:45:30 437.505
QB50P2 31 Jul 10:36:55 10:39:50 18° 69° (ENE) 10:42:46 145.880/145.840
POLYITAN 1 31 Jul 10:39:29 10:42:28 19° 69° (ENE) 10:45:27 437.675
Cosmos 2504 31 Jul 10:45:39 10:54:33 85° 277° (W) 11:03:25 435.465 / 435.565
CUBEBUG 2 31 Jul 10:46:35 10:48:07 12° 295° (WNW) 10:49:38 437.445
Cosmos 2491 31 Jul 10:47:01 10:50:38 13° 281° (WNW) 10:54:17 435.465 / 435.565
TIGRISAT 31 Jul 10:49:54 10:54:19 45° 261° (W) 10:58:50 435.000
ESTCUBE 1 31 Jul 10:54:50 10:55:37 10° 92° (E) 10:56:23 437.505/2401.250
AUBIESAT-1 31 Jul 10:58:18 11:02:59 77° 107° (ESE) 11:07:27 437.475
DELFI C3 31 Jul 10:58:43 11:02:18 34° 286° (WNW) 11:05:51 145.870
RS-15 31 Jul 11:07:15 11:09:34 11° 360° (N) 11:11:53 29.354- 29.394
UNISAT 6 31 Jul 11:08:35 11:12:27 26° 264° (W) 11:16:23 437.425
BUGSAT 1 31 Jul 11:14:54 11:17:33 17° 69° (ENE) 11:20:13 437.445
NANOSAT C BR1 31 Jul 11:16:48 11:20:52 49° 75° (ENE) 11:24:59 145.865
DUCHIFAT 1 31 Jul 11:18:42 11:22:46 47° 74° (ENE) 11:26:51 145.980
JAS-2 31 Jul 11:21:40 11:26:00 22° 69° (ENE) 11:30:03 435.910
AISAT 31 Jul 11:34:25 11:37:34 19° 95° (E) 11:40:43 437.250
QB50P1 31 Jul 11:41:55 11:46:08 74° 258° (WSW) 11:50:25 145.935-145.965
SPROUT 31 Jul 11:48:07 11:48:31 10° 92° (E) 11:48:55 437.525
POPSAT HIP 1 31 Jul 11:48:53 11:53:05 61° 260° (W) 11:57:20 437.405
AIST 1 31 Jul 12:05:10 12:08:25 22° 89° (E) 12:11:41
QB50P2 31 Jul 12:11:40 12:15:23 29° 263° (W) 12:19:08 145.880/145.840
M-CUBED/EXP-1 PRIME 31 Jul 12:12:29 12:15:01 15° 298° (WNW) 12:17:30 437.505
HUMSAT D 31 Jul 12:12:41 12:14:02 11° 293° (WNW) 12:15:21 437.325/437.525
CUBEBUG 1 31 Jul 12:12:43 12:17:06 62° 101° (E) 12:21:28 437.445
POLYITAN 1 31 Jul 12:14:18 12:18:01 29° 263° (W) 12:21:45 437.675
AO-85 31 Jul 12:19:08 12:24:31 72° 116° (ESE) 12:29:45 145.980
VELOX 1 31 Jul 12:24:14 12:28:41 72° 102° (ESE) 12:33:08 145.980
ESTCUBE 1 31 Jul 12:28:17 12:32:40 54° 285° (WNW) 12:37:02 437.505/2401.250
50 SAT 31 Jul 12:36:32 12:40:06 62° 283° (WNW) 12:43:38 437.505
Cosmos 2504 31 Jul 12:44:37 12:49:03 14° 293° (WNW) 12:53:27 435.465 / 435.565
BUGSAT 1 31 Jul 12:49:04 12:52:38 29° 262° (W) 12:56:17 437.445
DX 1 31 Jul 12:52:10 12:56:33 76° 284° (WNW) 13:00:55 434.975-435.025
NANOSAT C BR1 31 Jul 12:56:10 12:56:49 10° 268° (W) 12:57:28 145.865
UKube-1 31 Jul 12:56:34 13:00:55 87° 278° (W) 13:05:14 .
Oscar 19 31 Jul 12:57:21 13:02:08 43° 72° (ENE) 13:06:57 437.125/150
DUCHIFAT 1 31 Jul 12:57:48 12:58:39 11° 267° (W) 12:59:31 145.980
JAS-2 31 Jul 13:05:13 13:10:52 40° 260° (W) 13:16:01 435.910
AISAT 31 Jul 13:10:06 13:14:01 31° 288° (WNW) 13:17:56 437.250
Gurwin Techsat 1B 31 Jul 13:17:30 13:22:03 29° 70° (ENE) 13:26:35 435.225
RS-15 31 Jul 13:20:05 13:29:17 23° 37° (NE) 13:38:23 29.354- 29.394
SPROUT 31 Jul 13:20:30 13:24:41 51° 285° (WNW) 13:28:51 437.525
Cosmos 2499 31 Jul 13:36:19 13:40:09 14° 79° (E) 13:43:55 435.465 / 435.565
AIST 1 31 Jul 13:42:36 13:45:52 21° 283° (WNW) 13:49:10
CUSAT 1 31 Jul 13:52:59 13:56:18 35° 82° (E) 14:00:31 437.405
ITUPSAT 1 31 Jul 13:54:31 13:55:57 11° 93° (E) 13:57:22 437.325
TISAT 1 31 Jul 13:57:51 14:02:08 88° 111° (ESE) 14:06:22 437.305
AO-85 31 Jul 14:02:25 14:05:27 15° 311° (NW) 14:08:25 145.980
GONETS M04 31 Jul 14:16:32 14:24:27 41° 88° (E) 14:32:24
PHONESAT 2.4 31 Jul 14:16:38 14:19:39 62° 150° (SSE) 14:22:40 2401.200-2431.200
AO-7 31 Jul 14:32:49 14:40:06 35° 63° (ENE) 14:47:23 29.400- 29.500
Oscar 19 31 Jul 14:38:15 14:41:35 17° 266° (W) 14:44:57 437.125/150
ITAMSAT 1 31 Jul 14:42:03 14:47:12 64° 74° (ENE) 14:52:22 435.822/435.867
SWISSCUBE 31 Jul 14:42:09 14:46:45 48° 100° (E) 14:51:19 437.505
Gurwin Techsat 1B 31 Jul 14:57:23 15:01:53 28° 263° (W) 15:06:23 435.225
DANDE 31 Jul 15:02:27 15:05:19 76° 83° (E) 15:08:52 436.750
BEESAT 31 Jul 15:02:50 15:07:36 75° 103° (ESE) 15:12:20 436.000
SO-50 31 Jul 15:21:07 15:24:37 21° 52° (NE) 15:28:02 436.795
Cosmos 2499 31 Jul 15:23:07 15:32:02 85° 94° (E) 15:40:42 435.465 / 435.565
KKS-1 31 Jul 15:28:13 15:30:09 13° 93° (E) 15:32:04 437.445
ITUPSAT 1 31 Jul 15:29:23 15:34:03 56° 286° (WNW) 15:38:41 437.325
RS-15 31 Jul 15:31:39 15:44:06 78° 61° (ENE) 15:56:14 29.354- 29.394
CUSAT 1 31 Jul 15:37:19 15:38:14 11° 265° (W) 15:39:11 437.405
HORYU 2 31 Jul 15:46:21 15:48:04 12° 66° (ENE) 15:49:48 437.375
PHONESAT 2.4 31 Jul 15:53:36 15:56:17 27° 346° (NNW) 15:58:58 2401.200-2431.200
STARS 31 Jul 15:53:45 15:55:06 11° 93° (E) 15:56:25 437.465
GONETS M04 31 Jul 16:13:28 16:21:12 36° 284° (WNW) 16:29:01
SWISSCUBE 31 Jul 16:21:35 16:24:05 14° 294° (WNW) 16:26:35 437.505
BEESAT 3 31 Jul 16:23:48 16:27:08 27° 112° (ESE) 16:30:29 437.485
AO-7 31 Jul 16:24:38 16:32:33 46° 259° (WSW) 16:40:32 29.400- 29.500
ITAMSAT 1 31 Jul 16:25:10 16:27:00 12° 268° (W) 16:28:51 435.822/435.867
MOZHAYETS 4 31 Jul 16:36:41 16:41:15 84° 283° (WNW) 16:45:47
BEESAT 2 31 Jul 16:40:26 16:43:28 21° 111° (ESE) 16:46:30 435.950
CUTE-I 31 Jul 16:59:48 17:02:26 14° 64° (ENE) 17:05:04 437.470
SO-50 31 Jul 17:01:02 17:05:08 33° 248° (WSW) 17:09:07 436.795
NOAA 15 31 Jul 17:02:09 17:05:50 20° 67° (ENE) 17:09:31 137.62
KKS-1 31 Jul 17:02:35 17:06:53 46° 286° (WNW) 17:11:09 437.445
GOMX 1 31 Jul 17:16:09 17:16:54 10° 65° (ENE) 17:17:38 467.674
HORYU 2 31 Jul 17:19:45 17:24:07 52° 260° (W) 17:28:31 437.375
Cosmos 2499 31 Jul 17:20:42 17:25:59 17° 291° (WNW) 17:31:13 435.465 / 435.565
STARS 31 Jul 17:27:22 17:31:40 50° 286° (WNW) 17:35:56 437.465
PCSat 31 Jul 17:28:43 17:33:39 37° 109° (ESE) 17:38:37 145.827
PHONESAT 2.4 31 Jul 17:31:03 17:33:21 19° 2° (N) 17:35:38 2401.200-2431.200
RS-15 31 Jul 17:46:13 17:55:14 25° 259° (W) 18:04:10 29.354- 29.394
LilacSat-2 31 Jul 17:54:56 17:58:34 40° 75° (ENE) 18:02:15 437.200
BEESAT 3 31 Jul 18:01:57 18:04:47 19° 307° (NW) 18:07:37 437.485
CUBESAT XI-V 31 Jul 18:09:43 18:14:20 71° 284° (WNW) 18:18:57 437.345
Cubesat XI-IV 31 Jul 18:14:29 18:19:52 78° 75° (ENE) 18:25:15 437.490
BRITE-PL 31 Jul 18:14:31 18:18:34 53° 260° (W) 18:22:39 437.365/2234.400
NOAA 18 31 Jul 18:15:33 18:21:04 80° 76° (ENE) 18:26:38 137.9125
BEESAT 2 31 Jul 18:17:54 18:21:08 24° 305° (NW) 18:24:24 435.950
DOVE 4 31 Jul 18:18:01 18:21:33 25° 70° (ENE) 18:25:16 437.250
HO-68 31 Jul 18:25:29 18:29:45 17° 60° (ENE) 18:34:01 435.675
CUTE-I 31 Jul 18:36:34 18:41:53 63° 258° (WSW) 18:47:13 437.470
NOAA 15 31 Jul 18:40:20 18:45:15 41° 260° (W) 18:50:12 137.62
ISS 31 Jul 18:46:39 18:49:52 67° 134° (SE) 18:53:06 145.825
GOMX 1 31 Jul 18:50:22 18:54:25 51° 260° (W) 18:58:40 467.674
O/OREOS (USA 219) 31 Jul 18:56:03 18:59:59 32° 103° (ESE) 19:03:57 437.305
PHONESAT 2.4 31 Jul 19:07:26 19:10:20 37° 19° (NNE) 19:13:13 2401.200-2431.200
PCSat 31 Jul 19:12:41 19:17:05 25° 304° (NW) 19:21:30 145.827
CANX-2 31 Jul 19:19:16 19:22:58 29° 72° (ENE) 19:26:39 2200.000
AIST 2 31 Jul 19:23:06 19:27:08 64° 116° (ESE) 19:31:13 435.215
CINEMA 3 31 Jul 19:28:25 19:32:43 43° 73° (ENE) 19:37:13 145.822/145.860
CUTE 1.7 + AOD 2 31 Jul 19:31:27 19:35:19 35° 73° (ENE) 19:39:12 437.475
LilacSat-2 31 Jul 19:32:38 19:33:01 10° 268° (W) 19:33:24 437.200
Cosmos 2491 31 Jul 19:48:23 19:54:20 21° 82° (E) 20:00:15 435.465 / 435.565
DOVE 4 31 Jul 19:55:49 19:59:11 22° 266° (W) 20:02:41 437.250
SEEDS 31 Jul 20:00:44 20:04:51 55° 76° (ENE) 20:08:59 437.485
CUBEBUG 2 31 Jul 20:01:06 20:05:02 28° 71° (ENE) 20:09:03 437.445
COMPASS 1 31 Jul 20:03:00 20:06:52 38° 74° (ENE) 20:10:45 437.405
STRAND 1 31 Jul 20:05:36 20:10:43 85° 284° (WNW) 20:15:49 437.568
HO-68 31 Jul 20:09:25 20:16:36 79° 256° (WSW) 20:23:49 435.675
YUBILEINY 31 Jul 20:22:37 20:31:24 64° 82° (E) 20:40:03 435.215
PRISM 31 Jul 20:23:40 20:25:58 15° 95° (E) 20:28:16 437.425
ISS 31 Jul 20:25:08 20:26:36 12° 329° (NNW) 20:28:04 145.825
AAUSAT CUBESAT 2 31 Jul 20:25:51 20:29:55 59° 76° (ENE) 20:34:00 437.432
O/OREOS (USA 219) 31 Jul 20:36:17 20:39:24 18° 298° (WNW) 20:42:32 437.305
PHONESAT 2.4 31 Jul 20:43:59 20:46:47 33° 213° (SSW) 20:49:35 2401.200-2431.200
Cosmos 2504 31 Jul 20:45:54 20:52:14 26° 72° (ENE) 20:58:13 435.465 / 435.565
FUNcube-1 31 Jul 20:48:40 20:52:51 38° 73° (ENE) 20:57:05 145.935
ZACube-1 31 Jul 20:52:25 20:56:45 45° 74° (ENE) 21:01:07 437.345
CANX-2 31 Jul 20:55:51 20:58:47 18° 265° (W) 21:01:44 2200.000
AO-85 31 Jul 20:57:05 20:59:51 16° 50° (NE) 21:02:30 145.980
UWE-3 31 Jul 21:03:29 21:08:04 83° 257° (WSW) 21:12:46 435.000/436.395/437.385
AIST 2 31 Jul 21:05:11 21:06:01 10° 312° (NW) 21:06:50 435.215
CINEMA 3 31 Jul 21:07:37 21:10:04 14° 268° (W) 21:12:34 145.822/145.860
CUTE 1.7 + AOD 2 31 Jul 21:08:47 21:11:13 15° 266° (W) 21:13:39 437.475
M-CUBED/EXP-1 PRIME 31 Jul 21:19:04 21:22:23 28° 66° (ENE) 21:25:57 437.505
HUMSAT D 31 Jul 21:22:25 21:25:25 19° 70° (ENE) 21:28:27 437.325/437.525
Oscar 11 31 Jul 21:23:47 21:28:07 73° 259° (W) 21:32:27 145.826/435.025
CUBEBUG 2 31 Jul 21:37:57 21:41:34 23° 265° (W) 21:45:16 437.445
DELFI C3 31 Jul 21:39:31 21:43:28 68° 76° (ENE) 21:47:24 145.870
AUBIESAT-1 31 Jul 21:40:09 21:43:48 41° 68° (ENE) 21:47:44 437.475
COMPASS 1 31 Jul 21:40:41 21:42:32 13° 267° (W) 21:44:24 437.405
Cosmos 2491 31 Jul 21:41:38 21:50:17 67° 278° (W) 21:58:57 435.465 / 435.565
PRISM 31 Jul 21:57:37 22:01:19 33° 288° (WNW) 22:05:01 437.425
JUGNU 31 Jul 22:03:49 22:05:50 12° 163° (SSE) 22:07:50 437.505
ANTELSAT 31 Jul 22:06:48 22:10:03 19° 94° (E) 22:13:13 437.575/2403.000
YUBILEINY 31 Jul 22:21:02 22:27:21 23° 278° (W) 22:33:39 435.215
FUNcube-1 31 Jul 22:26:23 22:29:10 16° 267° (W) 22:31:59 145.935
ZACube-1 31 Jul 22:30:58 22:33:11 13° 267° (W) 22:35:25 437.345
AO-85 31 Jul 22:36:36 22:40:26 35° 248° (WSW) 22:44:01 145.980
Cosmos 2504 31 Jul 22:38:26 22:45:51 48° 271° (W) 22:52:49 435.465 / 435.565
TIGRISAT 31 Jul 22:45:54 22:50:22 53° 100° (E) 22:54:42 435.000
M-CUBED/EXP-1 PRIME 31 Jul 22:54:28 22:56:57 17° 262° (W) 22:59:35 437.505
HUMSAT D 31 Jul 22:57:04 23:00:48 29° 263° (W) 23:04:34 437.325/437.525
UNISAT 6 31 Jul 23:04:01 23:08:36 86° 287° (WNW) 23:13:03 437.425
CUBEBUG 1 31 Jul 23:04:38 23:08:20 28° 72° (ENE) 23:12:03 437.445
NANOSAT C BR1 31 Jul 23:08:03 23:09:16 11° 93° (E) 23:10:30 145.865
DUCHIFAT 1 31 Jul 23:09:54 23:10:52 11° 93° (E) 23:11:51 145.980
50 SAT 31 Jul 23:09:57 23:13:02 26° 72° (ENE) 23:16:04 437.505
AUBIESAT-1 31 Jul 23:17:16 23:18:31 11° 264° (W) 23:19:47 437.475
VELOX 1 31 Jul 23:17:17 23:21:15 35° 72° (ENE) 23:25:15 145.980
ESTCUBE 1 31 Jul 23:22:57 23:27:26 78° 76° (ENE) 23:31:55 437.505/2401.250
QB50P1 31 Jul 23:31:37 23:35:07 24° 96° (E) 23:38:36 145.935-145.965
POPSAT HIP 1 31 Jul 23:38:25 23:42:09 29° 97° (E) 23:45:51 437.405
ANTELSAT 31 Jul 23:42:46 23:46:45 30° 289° (WNW) 23:50:38 437.575/2403.000
DX 1 31 Jul 23:43:06 23:47:17 50° 74° (ENE) 23:51:29 434.975-435.025
UKube-1 31 Jul 23:46:37 23:50:40 42° 74° (ENE) 23:54:45 .
